Location: Moscow
(55.7500°N, 37.5830°E)
Time: 11:00:37
(UTC+03:00)

Vanguard 1 - Visible Passes

Search period start: 24 September 2023 00:00
Search period end: 04 October 2023 00:00
Orbit: 649 x 3831 km, 34.3° (Epoch: 24 September)

Date Brightness Start Highest point End Pass type
(mag) Time Alt. Az. Time Alt. Az. Time Alt. Az.
24 Sep 14.1 20:48:09 10° WSW 20:59:12 17° SW 21:11:15 10° S visible
25 Sep 13.9 18:44:23 10° WSW 18:57:45 27° SSW 19:14:41 10° SSE visible
25 Sep 14.2 21:11:40 10° WSW 21:18:57 13° SW 21:26:40 10° SSW visible
26 Sep 14.0 19:05:21 10° WSW 19:17:51 24° SSW 19:33:19 10° SSE visible
27 Sep 14.1 19:26:44 10° WSW 19:37:54 20° SSW 19:51:16 10° S visible
28 Sep 14.2 19:48:55 10° WSW 19:57:52 15° SW 20:08:09 10° S visible
29 Sep 14.4 20:13:39 10° SW 20:17:47 11° SW 20:22:11 10° SSW visible
01 Oct 14.3 18:28:19 10° WSW 18:36:57 17° SSW 18:47:37 10° S visible
02 Oct 14.3 18:51:12 10° SW 18:57:02 13° SW 19:03:42 10° SSW visible
